Harare Kutsaga, Zimbabwe

12:53 AM CAT on July 29, 2016 (GMT +0200)
Harare International

Weather History for FVHA - January, 2013

Change the Weather History Date:

Saturday, January 12, 2013

  Actual Average Record
Temperature  
Mean Temperature 70 °F -  
Max Temperature 78 °F 79 °F 84 °F (2005)
Min Temperature 63 °F 60 °F 59 °F (2005)
Cooling Degree Days 6    
Growing Degree Days 20 (Base 50)    
Moisture  
Dew Point 65 °F    
Average Humidity 86    
Maximum Humidity 100    
Minimum Humidity 56    
Precipitation  
Precipitation 0.00 in 0.23 in - ()
Sea Level Pressure  
Sea Level Pressure 29.99 in    
Wind  
Wind Speed 8 mph ()    
Max Wind Speed 17 mph    
Max Gust Speed -    
Visibility 7.1 miles    
Events Rain , Thunderstorm    
Averages and records for this station are not official NWS values.
T = Trace of Precipitation, MM = Missing Value Source: Averaged Metar Reports

Daily Weather History Graph

Daily Weather History Graph

Search for Another Location

Airport or City:

Trip Planner

Search our weather history database for the weather conditions in past years. The results will help you decide how hot, cold, wet, or windy it might be!

Date:

Astronomy

Jan. 12, 2013 Rise Set
Actual Time 5:30 AM CAT 6:37 PM CAT
Civil Twilight 5:06 AM CAT 7:00 PM CAT
Nautical Twilight 4:38 AM CAT 7:28 PM CAT
Astronomical Twilight 4:09 AM CAT 7:57 PM CAT
Moon 5:59 AM CAT (1/12) 7:08 PM CAT (1/12)
Length of Visible Light 13h 54m
Length of Day
13h 06m
New Moon, 1% of the Moon is Illuminated
Jan 12
New Moon
Jan 19
First Quarter
Jan 27
Full
Feb 3
Last Quarter
Feb 10
New

Hourly Weather History & Observations

Time (CAT) Temp. Dew Point Humidity Pressure Visibility Wind Dir Wind Speed Gust Speed Precip Events Conditions
12:00 AM 64.4 °F 64.4 °F 100% 30.01 in 6.2 mi NNW 11.5 mph - N/A Rain Light Rain
1:00 AM 64.4 °F 62.6 °F 94% 29.98 in - NNW 9.2 mph - N/A   Clear
2:00 AM 64 °F 63 °F 94%  in 16 mi NW 4.6 mph - -   Partly Cloudy
2:00 AM 64.4 °F 62.6 °F 94% 29.98 in 6.2 mi NW 4.6 mph - N/A   Mostly Cloudy
3:00 AM 64.4 °F 62.6 °F 94% 29.98 in - Variable 2.3 mph - N/A   Clear
5:00 AM 64.4 °F 62.6 °F 94% 29.98 in 6.2 mi NW 6.9 mph - N/A   Unknown
6:00 AM 64.4 °F 62.6 °F 94% 30.01 in - NW 6.9 mph - N/A   Clear
7:00 AM 66.2 °F 64.4 °F 94% 30.04 in 6.2 mi WNW 5.8 mph - N/A   Overcast
8:00 AM 66 °F 65 °F 95%  in 9 mi WNW 6.9 mph - - Rain Light Drizzle
8:00 AM 66.2 °F 64.4 °F 94% 30.04 in 6.2 mi WNW 6.9 mph - N/A   Mostly Cloudy
9:00 AM 68.0 °F 66.2 °F 94% 30.04 in 6.2 mi SE 9.2 mph - N/A   Mostly Cloudy
10:00 AM 71.6 °F 66.2 °F 83% 30.01 in 6.2 mi WNW 13.8 mph - N/A   Mostly Cloudy
11:00 AM 73.4 °F 64.4 °F 73% 30.01 in 6.2 mi WNW 11.5 mph - N/A   Mostly Cloudy
12:00 PM 78.8 °F 66.2 °F 65% 29.98 in 6.2 mi WNW 13.8 mph - N/A   Mostly Cloudy
1:00 PM 78.8 °F 66.2 °F 65% 29.95 in 6.2 mi WNW 15.0 mph - N/A   Mostly Cloudy
2:00 PM 77 °F 64 °F 56%  in 16 mi WNW 17.3 mph - -   Mostly Cloudy
2:00 PM 77.0 °F 64.4 °F 65% 29.95 in 6.2 mi WNW 17.3 mph - N/A   Mostly Cloudy
3:00 PM 78.8 °F 64.4 °F 61% 29.92 in 6.2 mi WNW 16.1 mph - N/A   Mostly Cloudy
4:00 PM 77.0 °F 64.4 °F 65% 29.92 in 6.2 mi WNW 15.0 mph - N/A   Mostly Cloudy
5:00 PM 77.0 °F 64.4 °F 65% 29.92 in 6.2 mi West 12.7 mph - N/A Rain Light Rain Showers
7:00 PM 66.2 °F 66.2 °F 100% 30.01 in 5.0 mi WSW 4.6 mph - N/A Rain , Thunderstorm Light Thunderstorms and Rain
8:00 PM 66 °F 66 °F 100%  in 5 mi WNW 3.5 mph - - Rain , Thunderstorm Thunderstorms and Rain
9:00 PM 66.2 °F 66.2 °F 100% 30.04 in 6.2 mi West 5.8 mph - N/A Rain Light Rain
10:00 PM 66.2 °F 66.2 °F 100% 30.04 in 6.2 mi West 6.9 mph - N/A Rain Light Rain
11:00 PM 66.2 °F 66.2 °F 100% 30.04 in 6.2 mi West 8.1 mph - N/A   Mostly Cloudy